Printer-friendly version

IAU Minor Planet Center

Minor Planet Center

MPEC 2005-C32 : 2005 CR37

The following Minor Planet Electronic Circular may be linked-to from your own Web pages, but must not otherwise be redistributed electronically.


Read MPEC 2005-C31 Read MPEC 2005-C33


M.P.E.C. 2005-C32                                Issued 2005 Feb. 8, 18:40 UT

     The Minor Planet Electronic Circulars contain information on unusual
         minor planets and routine data on comets.  They are published
   on behalf of Commission 20 of the International Astronomical Union by the
          Minor Planet Center, Smithsonian Astrophysical Observatory,
                          Cambridge, MA 02138, U.S.A.

                  Supported in part by the Brinson Foundation
             Prepared using the Tamkin Foundation Computer Network

                              MPC@CFA.HARVARD.EDU
          URL http://cfa-www.harvard.edu/iau/mpc.html  ISSN 1523-6714

                                   2005 CR37

Observations:
     K05C37R* C2005 02 08.14823 12 01 23.83 +52 31 49.5          16.6 R EC032106
     K05C37R  C2005 02 08.15395 12 01 22.87 +52 31 34.3          16.5 R EC032106
     K05C37R  C2005 02 08.15966 12 01 22.00 +52 31 19.6          16.5 R EC032106
     K05C37R 3C2005 02 08.44141 12 00 42.14 +52 19 18.1          17.3 V EC032H06
     K05C37R 3C2005 02 08.44542 12 00 41.46 +52 19 07.3          17.3 V EC032H06
     K05C37R 3C2005 02 08.45030 12 00 40.70 +52 18 53.8          17.2 V EC032H06
     K05C37R 2C2005 02 08.46778 12 00 37.61 +52 18 06.1          17.2 R EC032H06
     K05C37R 2C2005 02 08.47006 12 00 37.24 +52 18 00.3          17.3 R EC032H06
     K05C37R 2C2005 02 08.47220 12 00 36.86 +52 17 54.4          17.5 R EC032H06
     K05C37R  C2005 02 08.73227 12 00 02.68 +52 05 23.9          16.9 R EC032118
     K05C37R  C2005 02 08.73345 12 00 02.51 +52 05 20.9          16.9 R EC032118
     K05C37R  C2005 02 08.73582 12 00 02.18 +52 05 14.7          16.9 R EC032118

Observer details:
106 Crni Vrh.  Observer H. Mikuz.  0.60-m f/3.3 Deltagraph + CCD.
118 Modra.  Observer A. Galad.  0.6-m f/5.5 reflector + CCD.
H06 New Mexico Skies Observatory.  Observers J. Sue, R. Hutsebaut.  0.25-m
    reflector + CCD.

Orbital elements:
2005 CR37
Epoch 2005 Jan. 30.0 TT = JDT 2453400.5                 MPC
M 340.91323              (2000.0)            P               Q
n   0.37363513     Peri.  209.43817     -0.97532072     +0.12620817
a   1.9091391      Node   335.70275     +0.04584482     -0.68688147
e   0.4689478      Incl.   26.12227     -0.21598091     -0.71572715
P   2.64           H   19.1           G   0.15
From 12 observations 2005 Feb. 8-8.

Ephemeris:
2005 CR37                a,e,i = 1.91, 0.47, 26                  q = 1.0139
Date    TT    R. A. (2000) Decl.     Delta      r     Elong.  Phase     V
2005 02 09    11 59.31   +51 53.6    0.183    1.118   132.5    40.6    17.2
2005 02 19    11 15.91   +35 04.1    0.098    1.076   151.9    25.6    15.4
2005 03 01    09 42.90   -28 13.5    0.066    1.043   140.9    36.8    14.8
2005 03 11    07 28.73   -64 48.3    0.130    1.022    99.1    73.7    17.3
2005 03 21    05 44.67   -71 04.9    0.211    1.014    88.8    79.2    18.5
2005 03 31    04 45.18   -72 19.1    0.291    1.019    85.7    77.8    19.2
2005 04 10    04 11.18   -72 38.2    0.363    1.038    85.3    74.2    19.6
2005 04 20    03 51.00   -72 58.3    0.426    1.068    86.6    69.9    19.8
2005 04 30    03 38.59   -73 40.1    0.478    1.108    89.1    65.3    20.0
2005 05 10    03 30.70   -74 58.2    0.521    1.157    92.6    60.7    20.2
2005 05 20    03 23.69   -77 05.3    0.554    1.212    97.1    55.9    20.3
2005 05 30    03 11.23   -80 07.8    0.581    1.272   102.4    51.1    20.3
2005 06 09    02 30.86   -84 03.4    0.605    1.335   108.3    46.2    20.4
2005 06 19    22 27.72   -87 11.6    0.631    1.400   114.4    41.4    20.4
2005 06 29    18 18.50   -83 10.6    0.663    1.465   120.0    36.9    20.5
2005 07 09    17 40.99   -76 44.7    0.707    1.532   124.5    33.2    20.7
2005 07 19    17 36.23   -69 58.2    0.766    1.597   126.8    30.6    20.9
2005 07 29    17 40.99   -63 24.8    0.842    1.662   126.7    29.3    21.1
2005 08 08    17 49.91   -57 23.3    0.937    1.726   124.4    29.0    21.4
2005 08 18    18 01.19   -52 03.1    1.049    1.789   120.3    29.2    21.7

Timothy B. Spahr             (C) Copyright 2005 MPC           M.P.E.C. 2005-C32

Read MPEC 2005-C31 Read MPEC 2005-C33


Our Web policy. Index to the CBAT/MPC/ICQ pages.


Valid HTML 4.01!